Starlink 11421

operational
NORAD ID: 61945 Int'l Des: 2024-209 Owner: SPXS Country: US Constellation: starlink
LEOCIRCULAR

About Starlink 11421

Description loading...

Live Position

Loading 3D Globe...

Upcoming Passes

Altitude History

Altitude vs Time

uPlot chart will show altitude changes over time

Two-Line Element Set

1 61945U 24209G 26094.84550798 .00125580 00000-0 10252-2 0 9992
2 61945 53.1565 242.4908 0000909 97.7938 262.3183 15.69724172 80784
Epoch: Apr 4, 2026 • Age: 10 hours

Current Status

Altitude 378.1 km
Velocity 7.68 km/s
Sub-Earth Point -52.26°S, 127.2°W
Launch Date Nov 14, 2024
Age 1.3 years
Type internet

Technical Details

Classification Payload
Mass 960.00 kg
Dry Mass 910.00 kg
Total Mass 960.00 kg
Length 0.30 m
Diameter 4.10 m
Span 29.00 m
Shape Box + pan
Manufacturer SPXS
Bus Type Starlink V2MD
Phase Status In Orbit
Owner/State SPXS/US

Large Constellations

Loading constellations...